Location: Bamobli
(6.6379°N, 10.9396°W)
Time: 01:08:00
(UTC+00:00)

GPS 2-15 Rocket1 - Pass Details

Date: 07 June 2020
Orbit: 624 x 675 km, 19.8° (Epoch: 13 July)

Event Time Altitude Azimuth Distance (km) Brightness Sun altitude
Exits shadow 04:47:58 50° 171° (S) 809 3.4 -23.2°
Maximum altitude 04:48:14 51° 159° (SSE) 802 3.5 -23.2°
Drops below altitude 10° 04:52:53 10° 83° (E) 2,034 6.7 -22.2°
Sets 04:55:20 0° 78° (ENE) 2,953 7.9 -21.6°
